Regional Weather Roundup
Issued by NWS

Home | Current Version | Previous Version | Graphics & Text | Print | Product List | Glossary On
Versions: 1 2 3 4 5 6 7 8 9 10 11 12 13 14 15 16 17 18 19 20 21 22 23 24 25 26 27 28 29 30 31 32 33 34 35 36 37 38 39 40 41 42 43 44 45 46 47 48 49 50
828
ASUS45 KBOU 170207
RWRCO

WEATHER ROUNDUP FOR COLORADO
NATIONAL WEATHER SERVICE DENVER/BOULDER CO
700 PM MST MON JAN 16 2017

NOTE: "FAIR" INDICATES FEW OR NO CLOUDS BELOW 12000 FEET WITH NO
SIGNIFICANT WEATHER AND/OR OBSTRUCTIONS TO VISIBILITY.

COZ001>005-013-030-031-170300-
...NORTHWEST COLORADO...

CITY           SKY/WX    TMP DP  RH WIND       PRES   REMARKS
CRAIG          CLOUDY    16  12  84 SE5       30.19R WCI   9
HAYDEN         CLOUDY    16  10  79 CALM      30.16R
MEEKER         FAIR      20  13  74 CALM      30.14S
MOUNT WERNER   NOT AVBL
STEAMBOAT SPGS CLOUDY    19  16  89 NW6       30.14S WCI  10
WALDEN           N/A     21  18  86 CALM      30.11S
$$

COZ006>008-011-170300-
...WEST CENTRAL VALLEYS...

CITY           SKY/WX    TMP DP  RH WIND       PRES   REMARKS
GRAND JUNCTION FAIR      34  23  64 NE8       30.10R WCI  27
MONTROSE       CLOUDY    34  24  67 CALM      30.12R
EAGLE          CLEAR     27  21  80 CALM      30.10R
RIFLE          FAIR      28  22  78 CALM      30.12R
DELTA          CLOUDY    38  28  66 CALM      30.11S
NUCLA          CLOUDY    34  23  64 NW3       30.10R
$$

COZ017>023-064>068-170300-
...SOUTHWEST COLORADO...

CITY           SKY/WX    TMP DP  RH WIND       PRES   REMARKS
DURANGO        LGT SNOW  32  30  92 E3        30.04R FOG
CORTEZ         LGT SNOW  33  33 100 CALM      30.04R FOG
PAGOSA SPRINGS LGT SNOW  33  33  99 CALM      30.05R
TELLURIDE      LGT SNOW  25  24  95 CALM      30.05R
WOLF CREEK PAS CLOUDY    19  19 100 NW6       30.11R WCI  11
$$

COZ009-010-012-014-032>034-037-058>063-170300-
...CENTRAL COLORADO...

CITY           SKY/WX    TMP DP  RH WIND       PRES   REMARKS
ASPEN          CLOUDY    28  23  81 NW3       30.06R
BUENA VISTA    LGT SNOW  30  29  96 SE3       30.09R
COPPER MTN     FLURRIES  23  18  80 MISG      30.09R
BERTHOUD PASS  NOT AVBL
COTTONWOOD PAS LGT SNOW  30  27  86 CALM      30.08S VSB 3/4
GUNNISON       LGT SNOW  27  25  92 CALM      30.07R FOG
KREMMLING      FAIR      21  19  93 CALM      30.10R
LEADVILLE      LGT SNOW  23  21  92 S7        30.06R FOG     WCI  15
MONARCH PASS   CLOUDY    19  18  93 MISG      30.17S
SALIDA         CLOUDY    32  31  95 SE5       30.16R WCI  27
SUNLIGHT       CLOUDY    19  18  93 NE6       30.11S FOG     WCI  11
WILKERSON PASS LGT SNOW N/A N/A N/A CALM      30.11R
$$

COZ069>075-170300-
...SAN LUIS VALLEY/SANGRE DE CRISTO MOUNTAINS...

CITY           SKY/WX    TMP DP  RH WIND       PRES   REMARKS
ALAMOSA        CLOUDY    29  26  89 E10       30.05R WCI  20
LA VETA PASS   LGT SNOW  21  18  86 SW14      30.09R VSB 1   WCI   8
SAGUACHE       LGT SNOW  32  32 100 CALM      30.07R
$$

COZ035-036-038>040-170300-
...NORTHERN COLORADO FRONT RANGE...

CITY           SKY/WX    TMP DP  RH WIND       PRES   REMARKS
DENVER INTL AP CLOUDY    33  26  75 SW5       30.11S WCI  29
DMNS CITY PARK   N/A     34  28  80 E7        30.12S WCI  28
AURORA         CLOUDY    31  29  90 SW5       30.12S WCI  26
FRONT RANGE AP MOCLDY    34  28  80 SW5       30.12S WCI  30
ERIE MUNI ARPT CLOUDY    33  29  86 S3        30.12S
BOULDER MUN AP CLOUDY    34  30  86 CALM      30.11S
CENTENNIAL     CLOUDY    31  24  75 SW3       30.11S
BROOMFIELD     CLOUDY    32  27  80 CALM      30.12S
FORT COLLINS   CLOUDY    34  27  75 S3        30.12S
LONGMONT       CLOUDY    35  31  86 CALM      30.13F
$$

COZ041-046-047-076>085-087-088-170300-
...PIKES PEAK/PALMER DIVIDE AND SOUTHERN FOOTHILLS...

CITY           SKY/WX    TMP DP  RH WIND       PRES   REMARKS
COLO. SPRINGS  CLOUDY    33  23  66 N9        30.12R WCI  25
A. F. ACADEMY  CLOUDY    30  23  77 N8        30.10S WCI  22
SCHRIEVER AFB  NOT AVBL
ELLICOTT       CLOUDY   N/A N/A N/A N10       30.10R
FALCON         CLOUDY    30  21  70 NW5       30.11S WCI  25
FORT CARSON    CLOUDY    34  25  69 N9        30.13  WCI  26
LIMON          CLOUDY    31  24  75 NW10      30.10R WCI  22
MONUMENT HILL  CLOUDY    27  21  80 W5        30.12R WCI  21
TRINIDAD       LGT SNOW  31  29  92 NW8       30.13R VSB 1   WCI  23
$$

COZ042>045-048>051-090-091-170300-
...NORTHEAST COLORADO...

CITY           SKY/WX    TMP DP  RH WIND       PRES   REMARKS
GREELEY ARPT   CLOUDY    33  24  69 SW5       30.12S WCI  29
AKRON          CLOUDY    33  20  58 NW9       30.08S WCI  25
BURLINGTON     CLOUDY    33  27  78 NW14      30.08R WCI  23
WRAY           NOT AVBL
STERLING       CLOUDY    34  27  75 N3        30.09R
HOLYOKE        CLOUDY    36  27  69 NW9       30.08S
FORT MORGAN    CLOUDY    34  19  53 NW6       30.11R WCI  29
$$

COZ086-089-092>099-170300-
...SOUTHEAST COLORADO...

CITY           SKY/WX    TMP DP  RH WIND       PRES   REMARKS
PUEBLO         CLOUDY    34  31  88 SE6       30.14R WCI  29
LA JUNTA       LGT SNOW  33  31  92 NW9       30.14R FOG     WCI  25
LAMAR          LGT SNOW  33  31  92 NW9       30.11R FOG     WCI  25
SPRINGFIELD      N/A     31  30  96 N23G30    30.07R WCI  18
$$




USA.gov is the U.S. government's official web portal to all federal, state and local government web resources and services.